This demonstration page uses our WeatherBlox Daily Observations layout. Learn more.

40.92945, -100.16068

Hourly Observations for May 7, 2016

Temp ( °F °C ) Dew Point ( °F °C ) Humidity (%) Winds ( mph kmh ) Pressure ( in mb ) Visibility ( mi km ) Precip ( " mm )
12:15 am 00:15 Clear 61 16 52 11.1 73 73 SSE 8 13 29.83 1010 10 16.0934 N/A
12:35 am 00:35 Clear 59 15.1 52 11 77 77 SSE 6 9 29.85 1011 10 16.0934 N/A
12:55 am 00:55 Clear 60 15.8 51 10.8 72 72 SSE 5 7 29.83 1010 10 16.0934 N/A
1:15 am 01:15 Clear 60 15.4 51 10.5 73 73 S 6 9 29.83 1010 10 16.0934 N/A
1:35 am 01:35 Clear 59 15.2 51 10.7 75 75 S 7 11 29.85 1011 10 16.0934 N/A
1:55 am 01:55 Clear 61 16.2 53 11.5 74 74 S 9 15 29.83 1010 10 16.0934 N/A
2:15 am 02:15 Clear 62 16.7 52 11.2 70 70 S 8 13 29.83 1010 10 16.0934 N/A
2:35 am 02:35 Clear 63 17.2 52 11.1 68 68 SSW 10 17 29.83 1010 10 16.0934 N/A
2:55 am 02:55 Clear 65 18.4 52 11 62 62 SSW 14 22 29.83 1010 10 16.0934 N/A
3:15 am 03:15 Clear 65 18.6 52 10.9 61 61 SSW 14 22 29.77 1008 10 16.0934 N/A
3:35 am 03:35 Clear 65 18.5 52 10.9 61 61 SSW 13 20 29.77 1008 10 16.0934 N/A
3:55 am 03:55 Clear 64 17.9 52 10.9 64 64 SSW 7 11 29.83 1010 10 16.0934 N/A
4:15 am 04:15 Clear 62 16.8 52 10.9 68 68 NNW 14 22 29.85 1011 10 16.0934 N/A
4:35 am 04:35 Clear 61 16.3 52 10.9 71 71 NNW 6 9 29.85 1011 10 16.0934 N/A
4:55 am 04:55 Clear 60 15.5 51 10.6 73 73 NW 3 6 29.88 1012 10 16.0934 N/A
5:15 am 05:15 Clear 57 14 51 10.3 79 79 Calm 29.88 1012 10 16.0934 N/A
5:35 am 05:35 Clear 56 13.5 50 10 80 80 Calm 29.88 1012 10 16.0934 N/A
5:55 am 05:55 Clear 56 13.2 51 10.3 83 83 N 7 11 29.88 1012 10 16.0934 N/A
6:15 am 06:15 Clear 56 13.1 51 10.3 83 83 NNE 8 13 29.88 1012 10 16.0934 N/A
6:35 am 06:35 Sunny 56 13.2 51 10.6 84 84 NE 12 19 29.88 1012 10 16.0934 N/A
6:55 am 06:55 Sunny 56 13.5 51 10.7 83 83 NE 10 17 29.88 1012 10 16.0934 0 0
7:15 am 07:15 Sunny 56 13.5 51 10.7 83 83 NE 10 17 29.88 1012 10 16.0934 N/A
7:35 am 07:35 Sunny 56 13.6 51 10.5 82 82 NNE 10 17 29.88 1012 10 16.0934 N/A
7:55 am 07:55 Sunny 57 14 51 10.5 80 80 NE 14 22 29.88 1012 10 16.0934 N/A
8:15 am 08:15 Sunny 57 14 50 10.2 78 78 NE 13 20 29.88 1012 10 16.0934 N/A
8:35 am 08:35 Sunny 58 14.3 50 10.2 77 77 NE 15 24 29.88 1012 10 16.0934 N/A
8:55 am 08:55 Partly Cloudy 58 14.5 50 10.1 75 75 ENE 16 26 29.91 1013 10 16.0934 N/A
9:15 am 09:15 Partly Cloudy 58 14.7 51 10.5 76 76 NE 12 19 29.91 1013 10 16.0934 N/A
9:35 am 09:35 Sunny 58 14.7 50 10.2 75 75 NE 12 19 29.91 1013 10 16.0934 N/A
9:55 am 09:55 Mostly Cloudy 58 14.6 50 10.1 75 75 ENE 16 26 29.88 1012 10 16.0934 N/A
10:15 am 10:15 Partly Cloudy 59 15.1 50 10.1 72 72 ENE 16 26 29.91 1013 10 16.0934 N/A
10:35 am 10:35 Sunny 60 15.3 50 10.1 71 71 ENE 17 28 29.88 1012 10 16.0934 N/A
10:55 am 10:55 Sunny 60 15.6 50 10.2 70 70 ENE 15 24 29.85 1011 7 11.26538 N/A
11:15 am 11:15 Sunny 62 16.9 52 10.9 68 68 ENE 16 26 29.88 1012 10 16.0934 N/A
11:35 am 11:35 Sunny 64 17.6 52 11.2 66 66 ENE 16 26 29.88 1012 10 16.0934 N/A
11:55 am 11:55 Sunny 64 18 52 11.1 64 64 NE 17 28 29.85 1011 10 16.0934 N/A
12:15 pm 12:15 Sunny 65 18.5 52 11.2 63 63 ENE 20 31 29.85 1011 10 16.0934 N/A
12:35 pm 12:35 Sunny 66 19 53 11.4 62 62 ENE 22 35 29.83 1010 10 16.0934 N/A
12:55 pm 12:55 Sunny 67 19.5 53 11.8 61 61 ENE 18 30 29.83 1010 10 16.0934 N/A
1:15 pm 13:15 Sunny 67 19.7 53 11.8 60 60 E 20 31 29.83 1010 10 16.0934 N/A
1:35 pm 13:35 Sunny 69 20.3 54 12.2 60 60 ENE 16 26 29.83 1010 10 16.0934 N/A
1:55 pm 13:55 Sunny 70 21 55 12.9 60 60 ENE 15 24 29.8 1009 10 16.0934 N/A
2:15 pm 14:15 Sunny 69 20.5 55 12.6 61 61 E 12 19 29.83 1010 10 16.0934 N/A
2:35 pm 14:35 Sunny 69 20.5 55 12.8 61 61 ENE 13 20 29.83 1010 10 16.0934 N/A
2:55 pm 14:55 Mostly Cloudy 68 19.9 55 12.5 63 63 ENE 9 15 29.83 1010 10 16.0934 N/A
3:15 pm 15:15 Mostly Cloudy with Thunderstorms 67 19.3 55 12.7 66 66 NE 12 19 29.83 1010 10 16.0934 N/A
3:35 pm 15:35 Cloudy 66 19 55 12.7 67 67 ENE 15 24 29.8 1009 10 16.0934 N/A
3:55 pm 15:55 Mostly Cloudy with Drizzle 65 18.3 55 12.5 69 69 ENE 40 65 29.62 1003 7 11.26538 N/A
4:15 pm 16:15 Sunny 67 19.2 54 12.3 64 64 E 24 39 29.68 1005 10 16.0934 N/A
4:35 pm 16:35 Mostly Cloudy 66 19.1 54 12.1 64 64 E 22 35 29.71 1006 10 16.0934 N/A
4:55 pm 16:55 Cloudy 68 20.2 54 12.1 60 60 ESE 20 31 29.71 1006 10 16.0934 N/A
5:15 pm 17:15 Cloudy with Light Rain 67 19.5 55 12.6 65 65 E 16 26 29.71 1006 10 16.0934 N/A
5:35 pm 17:35 Mostly Cloudy with Nearby Thunderstorms 67 19.2 55 12.7 66 66 E 17 28 29.71 1006 10 16.0934 N/A
5:55 pm 17:55 Mostly Cloudy with Nearby Thunderstorms 66 19 55 12.6 67 67 ENE 17 28 29.71 1006 10 16.0934 N/A
6:15 pm 18:15 Partly Cloudy with Thunderstorms 65 18.5 52 11.2 63 63 ENE 21 33 29.71 1006 5 8.0467 N/A
6:35 pm 18:35 Cloudy with Nearby Thunderstorms 64 18 50 10 60 60 ENE 14 22 29.77 1008 4 6.43736 N/A
6:55 pm 18:55 Cloudy with Light Thunderstorms 61 16 51 10.4 70 70 ENE 10 17 29.77 1008 4 6.43736 0.01 0.254
7:15 pm 19:15 Mostly Cloudy with Light Rain 60 15.5 50 10.1 70 70 NE 13 20 29.77 1008 4 6.43736 N/A
7:35 pm 19:35 Hazy 60 15.5 49 9.6 68 68 ENE 14 22 29.77 1008 4 6.43736 N/A
7:55 pm 19:55 Hazy 59 15 49 9.5 70 70 ENE 14 22 29.74 1007 4 6.43736 N/A
8:15 pm 20:15 Partly Cloudy with Nearby Thunderstorms 58 14.6 49 9.2 70 70 ENE 15 24 29.74 1007 4 6.43736 N/A
8:35 pm 20:35 Hazy 59 14.9 48 9 68 68 ENE 15 24 29.74 1007 5 8.0467 N/A
8:55 pm 20:55 Mostly Cloudy 59 14.8 48 8.8 68 68 ENE 16 26 29.77 1008 7 11.26538 N/A
9:15 pm 21:15 Cloudy 59 15 47 8.4 65 65 ENE 22 35 29.74 1007 7 11.26538 N/A
9:35 pm 21:35 Cloudy with Thunderstorms 59 15 47 8.1 64 64 ENE 16 26 29.77 1008 7 11.26538 N/A
9:55 pm 21:55 Cloudy with Light Rain 56 13.5 48 9 74 74 ENE 12 19 29.83 1010 7 11.26538 0.02 0.508
10:15 pm 22:15 Cloudy with Rain 56 13.6 48 9 74 74 Calm 29.88 1012 5 8.0467 0.03 0.762
10:35 pm 22:35 Mostly Cloudy 55 12.5 48 9.1 80 80 ENE 18 30 29.83 1010 7 11.26538 0.2 5.08
10:55 pm 22:55 Partly Cloudy with Nearby Thunderstorms 55 12.5 48 8.8 78 78 ENE 17 28 29.8 1009 7 11.26538 0.2 5.08
11:15 pm 23:15 Partly Cloudy with Nearby Thunderstorms 55 12.6 47 8.4 76 76 ENE 17 28 29.8 1009 7 11.26538 N/A
11:35 pm 23:35 Partly Cloudy 54 12.1 47 8.2 77 77 E 13 20 29.83 1010 7 11.26538 N/A
11:55 pm 23:55 Clear with Light Rain 54 12.2 46 7.6 74 74 ENE 21 33 29.77 1008 7 11.26538 N/A

Powered by AerisWeather